• In Latvia
  • List of Countries
  • For 7 days
  • Water Temperature
  • Satellite Maps
  • Weather Map
  • Weather Widgets
  • user-avatar
    Login

    Hourly Weather Baku

    Today, 23 October, Tuesday

    Time Temperature Precipitation Wind Pressure Humidity
    00:00 +19°C° 0 mm 4 mps 761 mmHg 81%
    01:00 +19°C° 0 mm 4 mps 761 mmHg 77%
    02:00 +19°C° 0 mm 4 mps 761 mmHg 77%
    03:00 +19°C° 0 mm 5 mps 761 mmHg 80%
    04:00 +17°C° 0 mm 5 mps 761 mmHg 80%
    05:00 +18°C° 0 mm 4 mps 761 mmHg 80%
    06:00 +18°C° 0 mm 4 mps 761 mmHg 80%
    07:00 +19°C° 0 mm 4 mps 761 mmHg 76%
    08:00 +19°C° 0 mm 3 mps 761 mmHg 71%
    09:00 +20°C° 0 mm 3 mps 761 mmHg 67%
    10:00 +21°C° 0 mm 3 mps 761 mmHg 64%
    11:00 +21°C° 0 mm 2 mps 761 mmHg 61%
    12:00 +23°C° 0 mm 2 mps 761 mmHg 58%
    13:00 +22°C° 0 mm 3 mps 761 mmHg 59%
    14:00 +22°C° 0 mm 3 mps 760 mmHg 61%
    15:00 +22°C° 0 mm 4 mps 760 mmHg 63%
    16:00 +21°C° 0 mm 4 mps 760 mmHg 68%
    17:00 +20°C° 0 mm 4 mps 760 mmHg 74%
    18:00 +20°C° 0 mm 4 mps 760 mmHg 80%
    19:00 +20°C° 0 mm 4 mps 761 mmHg 80%
    20:00 +19°C° 0 mm 3 mps 761 mmHg 80%
    21:00 +19°C° 0 mm 3 mps 761 mmHg 80%
    22:00 +19°C° 0 mm 2 mps 760 mmHg 80%
    23:00 +19°C° 0 mm 2 mps 760 mmHg 79%

    Tomorrow, 24 October, Wednesday

    Time Temperature Precipitation Wind Pressure Humidity
    00:00 +20°C° 0 mm 1 mps 760 mmHg 79%
    01:00 +20°C° 0 mm 1 mps 760 mmHg 79%
    02:00 +19°C° 0 mm 2 mps 759 mmHg 78%
    03:00 +19°C° 0 mm 2 mps 759 mmHg 78%
    04:00 +19°C° 0 mm 3 mps 759 mmHg 78%
    05:00 +19°C° 0 mm 4 mps 758 mmHg 78%
    06:00 +19°C° 0 mm 5 mps 758 mmHg 78%
    07:00 +20°C° 0 mm 6 mps 758 mmHg 75%
    08:00 +20°C° 0 mm 7 mps 758 mmHg 72%
    09:00 +21°C° 0 mm 7 mps 758 mmHg 69%
    10:00 +22°C° 0 mm 8 mps 757 mmHg 63%
    11:00 +23°C° 0 mm 8 mps 756 mmHg 57%
    12:00 +24°C° 0 mm 9 mps 756 mmHg 51%
    13:00 +26°C° 0 mm 9 mps 755 mmHg 49%
    14:00 +26°C° 0 mm 9 mps 754 mmHg 47%
    15:00 +26°C° 0 mm 9 mps 753 mmHg 45%
    16:00 +24°C° 0 mm 9 mps 753 mmHg 49%
    17:00 +24°C° 0 mm 9 mps 753 mmHg 53%
    18:00 +23°C° 0 mm 9 mps 752 mmHg 56%
    19:00 +23°C° 0 mm 9 mps 752 mmHg 56%
    20:00 +23°C° 0 mm 9 mps 752 mmHg 56%
    21:00 +23°C° 0 mm 8 mps 751 mmHg 56%
    22:00 +23°C° 0 mm 8 mps 751 mmHg 55%
    23:00 +23°C° 0 mm 8 mps 750 mmHg 53%

    Day after tomorrow, 25 October, Thursday

    Time Temperature Precipitation Wind Pressure Humidity
    00:00 +23°C° 0 mm 8 mps 750 mmHg 51%
    01:00 +23°C° 0 mm 8 mps 749 mmHg 47%
    02:00 +23°C° 0 mm 8 mps 749 mmHg 43%
    03:00 +23°C° 0 mm 9 mps 748 mmHg 39%
    04:00 +22°C° 0 mm 9 mps 748 mmHg 39%
    05:00 +22°C° 0 mm 10 mps 748 mmHg 38%
    06:00 +22°C° 0 mm 11 mps 747 mmHg 38%
    07:00 +23°C° 0 mm 12 mps 747 mmHg 36%
    08:00 +24°C° 0 mm 12 mps 748 mmHg 34%
    09:00 +26°C° 0 mm 13 mps 748 mmHg 33%
    10:00 +27°C° 0 mm 13 mps 747 mmHg 31%
    11:00 +28°C° 0 mm 12 mps 747 mmHg 30%
    12:00 +29°C° 0 mm 12 mps 747 mmHg 28%
    13:00 +31°C° 0 mm 11 mps 746 mmHg 28%
    14:00 +31°C° 0 mm 10 mps 746 mmHg 28%
    15:00 +31°C° 0 mm 9 mps 746 mmHg 28%
    16:00 +29°C° 0 mm 8 mps 746 mmHg 31%
    17:00 +28°C° 0 mm 7 mps 745 mmHg 34%
    18:00 +27°C° 0 mm 6 mps 745 mmHg 37%
    19:00 +27°C° 0 mm 6 mps 746 mmHg 37%
    20:00 +27°C° 0 mm 7 mps 746 mmHg 38%
    21:00 +27°C° 0 mm 7 mps 747 mmHg 39%
    22:00 +24°C° 0 mm 9 mps 748 mmHg 49%
    23:00 +22°C° 0 mm 10 mps 749 mmHg 60%

    26 October, Friday

    Time Temperature Precipitation Wind Pressure Humidity
    00:00 +19°C° 0 mm 11 mps 750 mmHg 70%
    01:00 +19°C° 0 mm 12 mps 750 mmHg 73%
    02:00 +18°C° 0 mm 12 mps 751 mmHg 75%
    03:00 +17°C° 0 mm 13 mps 752 mmHg 77%
    04:00 +17°C° 0 mm 13 mps 752 mmHg 76%
    05:00 +15°C° 0 mm 13 mps 753 mmHg 75%
    06:00 +15°C° 0 mm 13 mps 754 mmHg 74%
    07:00 +15°C° 0 mm 13 mps 754 mmHg 71%
    08:00 +15°C° 0 mm 13 mps 755 mmHg 69%
    09:00 +15°C° 0 mm 12 mps 756 mmHg 67%
    10:00 +15°C° 0 mm 12 mps 756 mmHg 68%
    11:00 +16°C° 0 mm 11 mps 756 mmHg 68%
    12:00 +16°C° 0 mm 10 mps 756 mmHg 69%
    13:00 +14°C° 0.1 mm 11 mps 756 mmHg 71%
    14:00 +14°C° 0.1 mm 11 mps 756 mmHg 74%
    15:00 +13°C° 0.1 mm 12 mps 756 mmHg 76%
    16:00 +13°C° 0.9 mm 11 mps 757 mmHg 77%
    17:00 +13°C° 0.9 mm 11 mps 757 mmHg 77%
    18:00 +13°C° 0.9 mm 11 mps 758 mmHg 77%
    19:00 +13°C° 0.6 mm 10 mps 758 mmHg 77%
    20:00 +12°C° 0.6 mm 9 mps 759 mmHg 77%
    21:00 +12°C° 0.6 mm 8 mps 759 mmHg 77%
    22:00 +14°C° 0.6 mm 7 mps 759 mmHg 76%
    23:00 +14°C° 0.6 mm 6 mps 760 mmHg 75%

    27 October, Saturday

    Time Temperature Precipitation Wind Pressure Humidity
    00:00 +14°C° 0.6 mm 5 mps 760 mmHg 74%
    01:00 +14°C° 0 mm 6 mps 760 mmHg 68%
    02:00 +14°C° 0 mm 6 mps 760 mmHg 62%
    03:00 +14°C° 0 mm 7 mps 760 mmHg 56%
    04:00 +13°C° 0 mm 8 mps 761 mmHg 59%
    05:00 +13°C° 0 mm 8 mps 762 mmHg 62%
    06:00 +13°C° 0 mm 9 mps 763 mmHg 65%
    07:00 +15°C° 0 mm 9 mps 764 mmHg 61%
    08:00 +14°C° 0 mm 10 mps 766 mmHg 56%
    09:00 +16°C° 0 mm 11 mps 767 mmHg 52%
    10:00 +16°C° 0 mm 10 mps 767 mmHg 51%
    11:00 +17°C° 0 mm 9 mps 768 mmHg 50%
    12:00 +17°C° 0 mm 8 mps 768 mmHg 48%
    13:00 +17°C° 0 mm 8 mps 768 mmHg 51%
    14:00 +17°C° 0 mm 7 mps 769 mmHg 53%
    15:00 +16°C° 0 mm 7 mps 769 mmHg 55%
    16:00 +16°C° 0 mm 6 mps 770 mmHg 57%
    17:00 +16°C° 0 mm 5 mps 770 mmHg 58%
    18:00 +15°C° 0 mm 4 mps 771 mmHg 60%
    19:00 +15°C° 0 mm 4 mps 771 mmHg 61%
    20:00 +16°C° 0 mm 3 mps 771 mmHg 62%
    21:00 +16°C° 0 mm 3 mps 771 mmHg 63%
    22:00 +16°C° 0 mm 3 mps 771 mmHg 64%
    23:00 +16°C° 0 mm 3 mps 771 mmHg 66%

    28 October, Sunday

    Time Temperature Precipitation Wind Pressure Humidity
    00:00 +16°C° 0 mm 3 mps 771 mmHg 68%
    01:00 +15°C° 0 mm 4 mps 771 mmHg 69%
    02:00 +15°C° 0 mm 4 mps 771 mmHg 70%
    03:00 +15°C° 0 mm 4 mps 770 mmHg 71%
    04:00 +15°C° 0 mm 5 mps 771 mmHg 72%
    05:00 +15°C° 0 mm 5 mps 771 mmHg 72%
    06:00 +16°C° 0 mm 5 mps 771 mmHg 72%
    07:00 +16°C° 0 mm 6 mps 771 mmHg 70%
    08:00 +17°C° 0 mm 6 mps 771 mmHg 68%
    09:00 +17°C° 0 mm 7 mps 771 mmHg 66%
    10:00 +18°C° 0 mm 7 mps 771 mmHg 65%
    11:00 +18°C° 0 mm 7 mps 771 mmHg 63%
    12:00 +20°C° 0 mm 7 mps 770 mmHg 62%
    13:00 +20°C° 0 mm 7 mps 770 mmHg 62%
    14:00 +20°C° 0 mm 7 mps 770 mmHg 61%
    15:00 +20°C° 0 mm 7 mps 769 mmHg 61%
    16:00 +18°C° 0 mm 7 mps 769 mmHg 63%
    17:00 +18°C° 0 mm 7 mps 770 mmHg 65%
    18:00 +19°C° 0 mm 6 mps 770 mmHg 67%
    19:00 +17°C° 0 mm 6 mps 770 mmHg 68%
    20:00 +17°C° 0 mm 6 mps 770 mmHg 69%
    21:00 +17°C° 0 mm 6 mps 770 mmHg 70%
    22:00 +17°C° 0 mm 6 mps 770 mmHg 71%
    23:00 +17°C° 0 mm 5 mps 770 mmHg 72%

    29 October, Monday

    Time Temperature Precipitation Wind Pressure Humidity
    00:00 +17°C° 0 mm 5 mps 769 mmHg 73%
    01:00 +17°C° 0 mm 5 mps 769 mmHg 74%
    02:00 +16°C° 0 mm 5 mps 769 mmHg 74%
    03:00 +17°C° 0 mm 4 mps 769 mmHg 75%
    04:00 +17°C° 0 mm 4 mps 769 mmHg 76%
    05:00 +17°C° 0 mm 4 mps 769 mmHg 77%
    06:00 +17°C° 0 mm 4 mps 769 mmHg 78%
    07:00 +17°C° 0 mm 5 mps 769 mmHg 74%
    08:00 +17°C° 0 mm 5 mps 769 mmHg 71%
    09:00 +19°C° 0 mm 5 mps 770 mmHg 67%
    10:00 +20°C° 0 mm 5 mps 769 mmHg 64%
    11:00 +20°C° 0 mm 5 mps 769 mmHg 61%
    12:00 +21°C° 0 mm 5 mps 769 mmHg 58%
    13:00 +21°C° 0 mm 6 mps 768 mmHg 59%
    14:00 +21°C° 0 mm 6 mps 768 mmHg 59%
    15:00 +21°C° 0 mm 6 mps 768 mmHg 59%
    16:00 +20°C° 0 mm 6 mps 768 mmHg 63%
    17:00 +20°C° 0 mm 6 mps 768 mmHg 67%
    18:00 +19°C° 0 mm 6 mps 768 mmHg 70%
    19:00 +19°C° 0 mm 6 mps 768 mmHg 72%
    20:00 +19°C° 0 mm 6 mps 768 mmHg 73%
    21:00 +19°C° 0 mm 6 mps 768 mmHg 74%
    22:00 +19°C° 0 mm 5 mps 768 mmHg 75%
    23:00 +17°C° 0 mm 5 mps 768 mmHg 77%
    Show more